La Grange, GA

5:33 AM EDT on April 29, 2017 (GMT -0400)
Lagrange-Callaway

Weather History for KLGC - July, 2013

Change the Weather History Date:

Thursday, July 18, 2013

  Actual Average Record
Temperature  
Mean Temperature 78 °F -  
Max Temperature 89 °F 89 °F 100 °F (2015)
Min Temperature 68 °F 67 °F 57 °F (1967)
Cooling Degree Days 14    
Growing Degree Days 28 (Base 50)    
Moisture  
Dew Point 70 °F    
Average Humidity 78    
Maximum Humidity 97    
Minimum Humidity 54    
Precipitation  
Precipitation 0.00 in - - ()
Sea Level Pressure  
Sea Level Pressure 30.15 in    
Wind  
Wind Speed 2 mph (SE)    
Max Wind Speed 8 mph    
Max Gust Speed -    
Visibility 10 miles    
Events      
Averages and records for this station are not official NWS values.
T = Trace of Precipitation, MM = Missing Value Source: NWS Daily Summary

Daily Weather History Graph

Daily Weather History Graph

Search for Another Location

Airport or City:

Trip Planner

Search our weather history database for the weather conditions in past years. The results will help you decide how hot, cold, wet, or windy it might be!

Date:

Astronomy

Jul. 18, 2013 Rise Set
Actual Time 6:44 AM EDT 8:48 PM EDT
Civil Twilight 6:16 AM EDT 9:16 PM EDT
Nautical Twilight 5:42 AM EDT 9:49 PM EDT
Astronomical Twilight 5:06 AM EDT 10:26 PM EDT
Moon 4:45 PM EDT (7/18) 2:31 AM EDT (7/18)
Length of Visible Light 14h 59m
Length of Day
14h 03m
Waxing Gibbous, 77% of the Moon is Illuminated
Jul 18
Waxing Gibbous
Jul 22
Full
Jul 29
Last Quarter
Aug 6
New
Aug 14
First Quarter

Hourly Weather History & Observations

Time (EDT) Temp. Heat Index Dew Point Humidity Pressure Visibility Wind Dir Wind Speed Gust Speed Precip Events Conditions
12:15 AM 75.7 °F - 66.0 °F 72% 30.21 in 10.0 mi ESE 8.1 mph - N/A   Clear
12:35 AM 75.2 °F - 66.2 °F 73% 30.22 in 10.0 mi ESE 4.6 mph - N/A   Clear
12:55 AM 74.8 °F - 66.4 °F 75% 30.22 in 10.0 mi Calm Calm - N/A   Clear
1:15 AM 74.7 °F - 66.6 °F 76% 30.21 in 10.0 mi NE 3.5 mph - N/A   Clear
1:35 AM 73.8 °F - 67.3 °F 80% 30.21 in 10.0 mi SE 4.6 mph - N/A   Clear
1:55 AM 73.4 °F - 67.5 °F 82% 30.19 in 10.0 mi SE 4.6 mph - N/A   Clear
2:15 AM 72.5 °F - 67.5 °F 84% 30.19 in 10.0 mi South 3.5 mph - N/A   Clear
2:35 AM 72.5 °F - 67.1 °F 83% 30.17 in 10.0 mi Calm Calm - N/A   Clear
2:55 AM 72.1 °F - 67.6 °F 86% 30.16 in 10.0 mi Calm Calm - N/A   Clear
3:15 AM 71.6 °F - 67.8 °F 88% 30.16 in 10.0 mi Calm Calm - N/A   Clear
3:35 AM 71.2 °F - 68.0 °F 89% 30.16 in 10.0 mi Calm Calm - N/A   Clear
3:55 AM 70.7 °F - 68.0 °F 91% 30.16 in 10.0 mi Calm Calm - N/A   Clear
4:15 AM 70.9 °F - 67.8 °F 90% 30.16 in 10.0 mi Calm Calm - N/A   Clear
4:35 AM 70.2 °F - 68.0 °F 93% 30.17 in 10.0 mi Calm Calm - N/A   Clear
4:55 AM 70.2 °F - 67.8 °F 92% 30.16 in 10.0 mi Calm Calm - N/A   Clear
5:15 AM 69.4 °F - 67.8 °F 95% 30.16 in 10.0 mi Calm Calm - N/A   Clear
5:35 AM 69.1 °F - 67.5 °F 95% 30.16 in 10.0 mi Calm Calm - N/A   Clear
5:55 AM 70.3 °F - 68.2 °F 93% 30.15 in 10.0 mi Calm Calm - N/A   Clear
6:15 AM 68.7 °F - 67.1 °F 95% 30.16 in 10.0 mi Calm Calm - N/A   Clear
6:35 AM 68.4 °F - 67.5 °F 97% 30.16 in 10.0 mi Calm Calm - N/A   Clear
6:55 AM 70.2 °F - 68.5 °F 95% 30.16 in 10.0 mi Calm Calm - N/A   Clear
7:15 AM 70.0 °F - 68.4 °F 95% 30.17 in 10.0 mi Calm Calm - N/A   Clear
7:35 AM 70.0 °F - 68.4 °F 95% 30.17 in 10.0 mi Calm Calm - N/A   Clear
7:55 AM 70.3 °F - 68.9 °F 95% 30.19 in 10.0 mi Calm Calm - N/A   Clear
8:15 AM 71.6 °F - 68.7 °F 91% 30.19 in 10.0 mi Calm Calm - N/A   Clear
8:35 AM 72.0 °F - 69.1 °F 91% 30.20 in 10.0 mi Calm Calm - N/A   Clear
8:55 AM 72.7 °F - 68.9 °F 88% 30.20 in 10.0 mi Calm Calm - N/A   Clear
9:15 AM 72.7 °F - 69.1 °F 88% 30.20 in 10.0 mi NNE 3.5 mph - N/A   Clear
9:35 AM 73.6 °F - 69.4 °F 87% 30.20 in 10.0 mi Calm Calm - N/A   Clear
9:55 AM 75.4 °F - 70.3 °F 84% 30.19 in 10.0 mi Calm Calm - N/A   Clear
10:15 AM 77.9 °F - 70.0 °F 76% 30.19 in 10.0 mi Calm Calm - N/A   Clear
10:35 AM 80.1 °F 83.2 °F 70.0 °F 71% 30.19 in 10.0 mi NE 4.6 mph - N/A   Clear
10:55 AM 80.6 °F 83.9 °F 69.8 °F 70% 30.20 in 10.0 mi ENE 5.8 mph - N/A   Clear
11:15 AM 81.9 °F 86.0 °F 70.9 °F 69% 30.20 in 10.0 mi NE 3.5 mph - N/A   Clear
11:35 AM 81.7 °F 85.4 °F 70.0 °F 68% 30.20 in 10.0 mi SE 5.8 mph - N/A   Clear
11:55 AM 82.6 °F 87.1 °F 70.9 °F 68% 30.20 in 10.0 mi Calm Calm - N/A   Clear
12:15 PM 83.3 °F 88.2 °F 71.2 °F 67% 30.19 in 10.0 mi SE 3.5 mph - N/A   Scattered Clouds
12:35 PM 83.1 °F 87.6 °F 70.5 °F 66% 30.19 in 10.0 mi Calm Calm - N/A   Mostly Cloudy
12:55 PM 84.9 °F 90.1 °F 70.9 °F 63% 30.19 in 10.0 mi SSE 4.6 mph - N/A   Scattered Clouds
1:15 PM 85.6 °F 90.8 °F 70.9 °F 61% 30.19 in 10.0 mi SE 3.5 mph - N/A   Mostly Cloudy
1:35 PM 86.2 °F 92.2 °F 71.8 °F 62% 30.18 in 10.0 mi South 5.8 mph - N/A   Scattered Clouds
1:55 PM 85.3 °F 91.1 °F 71.8 °F 64% 30.17 in 10.0 mi ESE 3.5 mph - N/A   Mostly Cloudy
2:15 PM 85.3 °F 90.4 °F 70.9 °F 62% 30.16 in 10.0 mi Calm Calm - N/A   Mostly Cloudy
2:35 PM 87.8 °F 94.7 °F 72.5 °F 60% 30.15 in 10.0 mi SW 3.5 mph - N/A   Mostly Cloudy
2:55 PM 88.0 °F 95.1 °F 72.3 °F 60% 30.14 in 10.0 mi SSW 3.5 mph - N/A   Mostly Cloudy
3:15 PM 88.0 °F 95.1 °F 72.5 °F 60% 30.13 in 10.0 mi ESE 3.5 mph - N/A   Mostly Cloudy
3:35 PM 88.5 °F 94.9 °F 71.8 °F 57% 30.12 in 10.0 mi Calm Calm - N/A   Mostly Cloudy
3:55 PM 88.3 °F 94.5 °F 71.4 °F 57% 30.11 in 10.0 mi SSE 3.5 mph - N/A   Mostly Cloudy
4:15 PM 89.1 °F 95.5 °F 71.4 °F 56% 30.09 in 10.0 mi SSW 4.6 mph - N/A   Mostly Cloudy
4:35 PM 88.2 °F 94.1 °F 71.4 °F 57% 30.08 in 10.0 mi SE 5.8 mph - N/A   Scattered Clouds
4:55 PM 88.2 °F 94.1 °F 71.2 °F 57% 30.08 in 10.0 mi Calm Calm - N/A   Scattered Clouds
5:15 PM 88.9 °F 96.1 °F 72.1 °F 58% 30.07 in 10.0 mi SSE 5.8 mph - N/A   Scattered Clouds
6:15 PM 88.9 °F 94.2 °F 70.5 °F 54% 30.07 in 10.0 mi Calm Calm - N/A   Clear
6:35 PM 88.3 °F 94.1 °F 70.9 °F 56% 30.07 in 10.0 mi SSE 3.5 mph - N/A   Clear
6:55 PM 88.3 °F 93.6 °F 70.3 °F 55% 30.07 in 10.0 mi Calm Calm - N/A   Clear
7:15 PM 88.3 °F 95.0 °F 71.8 °F 58% 30.07 in 10.0 mi SSW 4.6 mph - N/A   Clear
7:35 PM 88.0 °F 94.7 °F 72.0 °F 59% 30.07 in 10.0 mi Calm Calm - N/A   Clear
7:55 PM 86.7 °F 93.7 °F 72.7 °F 63% 30.07 in 10.0 mi SSE 3.5 mph - N/A   Clear
8:15 PM 84.9 °F 92.9 °F 74.7 °F 71% 30.08 in 10.0 mi Calm Calm - N/A   Scattered Clouds
8:35 PM 82.0 °F 89.1 °F 75.7 °F 81% 30.09 in 10.0 mi Calm Calm - N/A   Mostly Cloudy
8:55 PM 80.8 °F 86.5 °F 75.2 °F 83% 30.10 in 10.0 mi Calm Calm - N/A   Scattered Clouds
9:15 PM 79.0 °F - 74.3 °F 85% 30.10 in 10.0 mi Calm Calm - N/A   Clear
9:35 PM 77.9 °F - 73.8 °F 87% 30.11 in 10.0 mi Calm Calm - N/A   Scattered Clouds
9:55 PM 77.0 °F - 74.3 °F 91% 30.11 in 10.0 mi Calm Calm - N/A   Scattered Clouds
10:15 PM 76.1 °F - 74.3 °F 94% 30.11 in 10.0 mi Calm Calm - N/A   Clear
10:35 PM 75.9 °F - 73.8 °F 93% 30.12 in 10.0 mi Calm Calm - N/A   Clear
10:55 PM 75.6 °F - 74.3 °F 96% 30.13 in 10.0 mi Calm Calm - N/A   Clear
11:15 PM 75.0 °F - 73.2 °F 94% 30.13 in 10.0 mi Calm Calm - N/A   Clear
11:35 PM 75.2 °F - 73.2 °F 94% 30.13 in 10.0 mi Calm Calm - N/A   Clear
11:55 PM 74.3 °F - 73.4 °F 97% 30.12 in 10.0 mi Calm Calm - N/A   Clear